N550GC MMGL-KTEB

Flight info

Callsign N550GC
Flight time N/A
Altitude 41000
Route FEISE1B FEISE J25 BRO DCT GLSLH DCT SBIRD DCT ZIROR DCT RUCBO DCT MEI DCT VUZ DCT BFOLO DCT LORNN DCT OJESS DCT BUFIY DCT ROA DCT PROSE DCT GVE JAIKE4
Aircraft GLF5/M-S/N

Departure

Time N/A
Airport Guadalajara International Airport (MMGL)

Arrival

Time 2026-04-27 22:34
Airport Teterboro Airport (KTEB)
Time Latitude Longitude Altitude Speed Heading
2026-04-27 22:08 39.60359 -75.77569 32642 ft 440 kts 28°
2026-04-27 22:08 39.62848 -75.75273 32028 ft 438 kts 29°
2026-04-27 22:09 39.65320 -75.73013 31484 ft 436 kts 28°
2026-04-27 22:09 39.67797 -75.70761 31019 ft 434 kts 29°
2026-04-27 22:09 39.70253 -75.68516 30496 ft 431 kts 29°
2026-04-27 22:09 39.72697 -75.66278 30089 ft 428 kts 30°
2026-04-27 22:10 39.75110 -75.64065 29543 ft 425 kts 30°
2026-04-27 22:10 39.77512 -75.61853 28935 ft 422 kts 31°
2026-04-27 22:10 39.79890 -75.59642 28544 ft 419 kts 31°
2026-04-27 22:10 39.82252 -75.57449 27954 ft 416 kts 31°
2026-04-27 22:11 39.84585 -75.55278 27371 ft 412 kts 31°
2026-04-27 22:11 39.86909 -75.53117 26889 ft 409 kts 31°
2026-04-27 22:11 39.89218 -75.50976 26377 ft 406 kts 31°
2026-04-27 22:11 39.91509 -75.48862 25855 ft 402 kts 31°
2026-04-27 22:12 39.93779 -75.46774 25347 ft 399 kts 31°
2026-04-27 22:12 39.96036 -75.44697 24831 ft 396 kts 32°
2026-04-27 22:12 39.98272 -75.42625 24315 ft 393 kts 32°
2026-04-27 22:12 40.00483 -75.40568 23802 ft 389 kts 32°
2026-04-27 22:13 40.02382 -75.38801 23356 ft 387 kts 32°
2026-04-27 22:13 40.04396 -75.36927 23580 ft 383 kts 32°
2026-04-27 22:13 40.06474 -75.34990 24197 ft 381 kts 32°
2026-04-27 22:13 40.08631 -75.32975 24835 ft 382 kts 32°
2026-04-27 22:14 40.10545 -75.31188 25390 ft 384 kts 31°
2026-04-27 22:14 40.12857 -75.29052 26040 ft 386 kts 31°
2026-04-27 22:14 40.15062 -75.27020 26553 ft 392 kts 31°
2026-04-27 22:14 40.17287 -75.24963 26031 ft 392 kts 31°
2026-04-27 22:15 40.19498 -75.22896 25660 ft 392 kts 32°
2026-04-27 22:15 40.21711 -75.20815 25458 ft 392 kts 32°
2026-04-27 22:15 40.23927 -75.18730 25393 ft 392 kts 32°
2026-04-27 22:15 40.26145 -75.16657 25273 ft 392 kts 32°
2026-04-27 22:16 40.28353 -75.14595 25007 ft 392 kts 32°
2026-04-27 22:16 40.30567 -75.12527 24571 ft 390 kts 32°
2026-04-27 22:16 40.32744 -75.10419 24001 ft 389 kts 36°
2026-04-27 22:16 40.34746 -75.08051 23409 ft 387 kts 41°
2026-04-27 22:17 40.36571 -75.05493 22806 ft 385 kts 46°
2026-04-27 22:17 40.38274 -75.02802 22182 ft 382 kts 48°
2026-04-27 22:17 40.39911 -75.00076 21553 ft 379 kts 46°
2026-04-27 22:17 40.41641 -74.97490 20929 ft 375 kts 42°
2026-04-27 22:18 40.43381 -74.95008 20315 ft 367 kts 42°
2026-04-27 22:18 40.45097 -74.92605 19725 ft 355 kts 42°
2026-04-27 22:18 40.46780 -74.90275 19160 ft 348 kts 42°
2026-04-27 22:18 40.48248 -74.88242 18759 ft 343 kts 43°
2026-04-27 22:19 40.49869 -74.85991 18324 ft 338 kts 43°
2026-04-27 22:19 40.51478 -74.83762 17873 ft 334 kts 43°
2026-04-27 22:19 40.53069 -74.81557 17440 ft 331 kts 43°
2026-04-27 22:19 40.54640 -74.79358 17010 ft 329 kts 44°
2026-04-27 22:20 40.56190 -74.77181 16585 ft 326 kts 44°
2026-04-27 22:20 40.57728 -74.75000 16202 ft 324 kts 44°
2026-04-27 22:20 40.59273 -74.72851 15918 ft 323 kts 42°
2026-04-27 22:20 40.60890 -74.70821 15452 ft 321 kts 40°
2026-04-27 22:21 40.62531 -74.68869 15026 ft 319 kts 39°
2026-04-27 22:21 40.64187 -74.66950 14640 ft 317 kts 39°
2026-04-27 22:21 40.65839 -74.65040 14248 ft 315 kts 39°
2026-04-27 22:21 40.67480 -74.63136 13843 ft 314 kts 39°
2026-04-27 22:22 40.69109 -74.61252 13469 ft 312 kts 39°
2026-04-27 22:22 40.70741 -74.59369 13083 ft 311 kts 39°
2026-04-27 22:22 40.72367 -74.57498 12701 ft 310 kts 39°
2026-04-27 22:22 40.73989 -74.55639 12319 ft 309 kts 39°
2026-04-27 22:23 40.75594 -74.53792 11954 ft 307 kts 40°
2026-04-27 22:23 40.77188 -74.51941 11596 ft 301 kts 40°
2026-04-27 22:23 40.78738 -74.50140 11349 ft 293 kts 40°
2026-04-27 22:23 40.80261 -74.48374 11021 ft 289 kts 40°
2026-04-27 22:24 40.81755 -74.46644 10732 ft 286 kts 40°
2026-04-27 22:24 40.83242 -74.44928 10434 ft 284 kts 40°
2026-04-27 22:24 40.84712 -74.43218 10137 ft 282 kts 41°
2026-04-27 22:24 40.86166 -74.41504 9781 ft 279 kts 41°
2026-04-27 22:25 40.87604 -74.39805 9426 ft 277 kts 41°
2026-04-27 22:25 40.89041 -74.38110 9069 ft 275 kts 41°
2026-04-27 22:25 40.90473 -74.36430 8712 ft 274 kts 41°
2026-04-27 22:25 40.91898 -74.34763 8389 ft 272 kts 41°
2026-04-27 22:26 40.93311 -74.33118 8099 ft 272 kts 41°
2026-04-27 22:26 40.94715 -74.31463 7810 ft 271 kts 42°
2026-04-27 22:26 40.96105 -74.29810 7512 ft 268 kts 42°
2026-04-27 22:26 40.97478 -74.28178 7216 ft 264 kts 42°
2026-04-27 22:27 40.98829 -74.26573 6928 ft 262 kts 42°
2026-04-27 22:27 41.00178 -74.24977 6631 ft 259 kts 42°
2026-04-27 22:27 41.01511 -74.23404 6326 ft 254 kts 42°
2026-04-27 22:27 41.02819 -74.21853 6031 ft 251 kts 42°
2026-04-27 22:28 41.04103 -74.20325 5734 ft 249 kts 42°
2026-04-27 22:28 41.05383 -74.18802 5434 ft 247 kts 42°
2026-04-27 22:28 41.06635 -74.17285 5188 ft 242 kts 45°
2026-04-27 22:28 41.07481 -74.15410 4889 ft 239 kts 72°
2026-04-27 22:29 41.07549 -74.13284 4600 ft 230 kts 99°
2026-04-27 22:29 41.07033 -74.11310 4319 ft 224 kts 113°
2026-04-27 22:29 41.06278 -74.09533 4031 ft 218 kts 121°
2026-04-27 22:29 41.05400 -74.07929 3743 ft 218 kts 127°
2026-04-27 22:30 41.04389 -74.06441 3447 ft 216 kts 134°
2026-04-27 22:30 41.03094 -74.05481 3167 ft 213 kts 160°
2026-04-27 22:30 41.01634 -74.05177 2937 ft 213 kts 175°
2026-04-27 22:30 41.00181 -74.05257 2692 ft 203 kts 183°
2026-04-27 22:31 40.98808 -74.05447 2441 ft 196 kts 184°
2026-04-27 22:31 40.97469 -74.05571 2187 ft 190 kts 180°
2026-04-27 22:31 40.96167 -74.05604 1942 ft 185 kts 178°
2026-04-27 22:31 40.94897 -74.05611 1687 ft 181 kts 178°
2026-04-27 22:32 40.93654 -74.05639 1479 ft 178 kts 179°
2026-04-27 22:32 40.92425 -74.05688 1320 ft 176 kts 179°
2026-04-27 22:32 40.91219 -74.05709 1148 ft 170 kts 175°
2026-04-27 22:32 40.90057 -74.05649 934 ft 164 kts 175°
2026-04-27 22:33 40.88940 -74.05654 727 ft 158 kts 178°
2026-04-27 22:33 40.87865 -74.05722 572 ft 152 kts 180°
2026-04-27 22:33 40.86828 -74.05815 320 ft 146 kts 181°
2026-04-27 22:33 40.85841 -74.05895 70 ft 134 kts 180°
2026-04-27 22:34 40.85040 -74.05950 19 ft 77 kts 182°
2026-04-27 22:34 40.84624 -74.05981 19 ft 49 kts 183°
2026-04-27 22:34 40.84348 -74.06006 19 ft 32 kts 185°
2026-04-27 22:34 40.84173 -74.06017 19 ft 19 kts 185°
2026-04-27 22:35 40.84140 -74.06072 19 ft 4 kts 272°
2026-04-27 22:35 40.84141 -74.06105 19 ft 6 kts 273°
2026-04-27 22:35 40.84147 -74.06262 19 ft 25 kts 271°
2026-04-27 22:35 40.84171 -74.06501 19 ft 26 kts 285°
2026-04-27 22:36 40.84248 -74.06565 19 ft 0 kts